This is the latest recevied weather packets stored in our database for station/object KC2WGU. If no packets are shown the sender has not sent any weather packets the latest 10 day(s).
| Time | Temp. | Humidity | Pressure | Rain* | Wind** | Luminosity | Snow |
|---|---|---|---|---|---|---|---|
| 1777837221 | 11.11° C | 41% | 1007.8 hPa | 0 mm | - | 0 W/m² | - |
| 1777836622 | 10.56° C | 38% | 1007.8 hPa | 0 mm | - | 0 W/m² | - |
| 1777836021 | 10.56° C | 41% | 1007.8 hPa | 0 mm | - | 0 W/m² | - |
| 1777835422 | 10.56° C | 40% | 1007.8 hPa | 0 mm | - | 0 W/m² | - |
| 1777834822 | 10.56° C | 38% | 1008 hPa | 0 mm | - | 0 W/m² | - |
| 1777834222 | 10.56° C | 40% | 1008.2 hPa | 0 mm | - | 0 W/m² | - |
| 1777833622 | 10.56° C | 42% | 1008.2 hPa | 0 mm | - | 0 W/m² | - |
| 1777833022 | 10.56° C | 43% | 1008.4 hPa | 0 mm | - | 0 W/m² | - |
| 1777832422 | 10.56° C | 45% | 1008.5 hPa | 0 mm | - | 0 W/m² | - |
| 1777831821 | 10° C | 46% | 1008.5 hPa | 0 mm | - | 0 W/m² | - |
| 1777831221 | 8.89° C | 46% | 1008.6 hPa | 0 mm | - | 0 W/m² | - |
| 1777830621 | 8.89° C | 46% | 1008.6 hPa | 0 mm | - | 0 W/m² | - |
| 1777830021 | 8.89° C | 47% | 1008.6 hPa | 0 mm | - | 0 W/m² | - |
| 1777829422 | 8.89° C | 53% | 1008.8 hPa | 0 mm | - | 0 W/m² | - |
| 1777828822 | 8.33° C | 49% | 1008.9 hPa | 0 mm | - | 0 W/m² | - |
| 1777828221 | 7.78° C | 51% | 1009 hPa | 0 mm | - | 0 W/m² | - |
| 1777827621 | 7.78° C | 51% | 1009.1 hPa | 0 mm | - | 0 W/m² | - |
| 1777827023 | 7.22° C | 52% | 1009.4 hPa | 0 mm | - | 0 W/m² | - |
| 1777826421 | 7.22° C | 51% | 1009.4 hPa | 0 mm | - | 0 W/m² | - |
| 1777825822 | 7.22° C | 51% | 1009.3 hPa | 0 mm | - | 0 W/m² | - |
| 1777825222 | 7.22° C | 52% | 1009.4 hPa | 0 mm | - | 0 W/m² | - |
| 1777824621 | 6.67° C | 52% | 1009.5 hPa | 0 mm | - | 0 W/m² | - |
| 1777824022 | 6.67° C | 54% | 1009.4 hPa | 0 mm | - | 0 W/m² | - |
| 1777823421 | 7.22° C | 53% | 1009.4 hPa | 0 mm | - | 0 W/m² | - |
| 1777822821 | 6.67° C | 53% | 1009.5 hPa | 0 mm | - | 0 W/m² | - |
* Rain latest hour (hover to see other rain measurements)
** Current wind speed in m/s (hover to see current wind gust speed)